[[[{"header":{"parameterUnit":"kt","parameterCategory":2,"dx":1,"dy":1,"la1":30.253999710083008,"la2":30.299108505249023,"lo1":-89.0895004272461,"lo2":-89.04439544677734,"nx":28,"ny":28,"refTime":"2022-10-07T21:00:00:Z","depth":0,"parameterNumber":1,"parameterNumberName":"U-component_of_WINDS"},"data":[-4.9611,-4.9754,-4.9733,-4.9886,-4.9893,-4.9993,-5.0022,-5.0057,-5.0079,-5.0195,-5.0258,-5.025,-5.0262,-5.0331,-5.0397,-5.0391,-5.0422,-5.0487,-5.0471,-5.0196,-5.0157,-5.012,-5.0086,-5.0494,-5.0494,-5.0758,-5.0761,-5.0763,-4.9411,-4.942,-4.9494,-4.9553,-4.9616,-4.954,-4.9579,-4.9638,-4.9729,-4.9757,-4.9817,-4.9917,-4.9993,-4.9983,-5.0052,-5.0116,-5.0085,-5.0137,-5.0133,-5.0137,-4.9842,-4.9806,-5.0161,-5.0161,-5.0161,-5.0161,-5.0161,-5.0161,-4.9041,-4.9127,-4.9151,-4.9231,-4.9254,-4.9293,-4.9371,-4.936,-4.9432,-4.9503,-4.9462,-4.9565,-4.9588,-4.966,-4.9678,-4.9756,-4.9695,-4.9745,-4.9758,-4.9773,-4.9792,-4.9417,-4.9766,-4.9765,-4.9764,-4.9763,-4.9763,0,-4.8764,-4.8741,-4.8811,-4.8876,-4.8933,-4.8981,-4.902,-4.9068,-4.9009,-4.9071,-4.9159,-4.9205,-4.9296,-4.9376,-4.9435,-4.9443,-4.9371,-4.936,-4.9395,-4.9419,-4.9432,-4.9429,-4.8952,-4.9351,-4.9348,-4.9345,-4.9343,-4.9342,-4.8392,-4.8495,-4.8508,-4.856,-4.8577,-4.8662,-4.8708,-4.8648,-4.87,-4.8739,-4.8817,-4.8895,-4.8956,-4.9098,-4.9083,-4.9151,-4.9117,-4.9272,-4.9127,-4.9144,-4.9122,-4.9118,-4.9129,-4.9303,-4.9308,-4.9312,-4.9315,0,-4.8185,-4.8149,-4.8302,-4.8304,-4.8308,-4.8419,-4.842,-4.8503,-4.8483,-4.8594,-4.8616,-4.8585,-4.8671,-4.8631,-4.8721,-4.8697,-4.8878,-4.8841,-4.8869,-4.8861,-4.8997,-4.8986,-4.9443,-4.9501,-4.9074,-4.9078,-4.9082,0,-4.7854,-4.7991,-4.7931,-4.8021,-4.8171,-4.8108,-4.8257,-4.8255,-4.8274,-4.8361,-4.8272,-4.8355,-4.829,-4.8367,-4.8332,-4.8472,-4.8488,-4.8479,-4.8469,-4.849,-4.8491,-4.8518,-4.85,-4.8439,-4.8436,-4.8434,-4.8433,0,-4.7536,-4.7663,-4.7809,-4.7832,-4.7849,-4.7919,-4.7929,-4.795,-4.7996,-4.8047,-4.8076,-4.8141,-4.8177,-4.8228,-4.8184,-4.8087,-4.8353,-4.821,-4.8344,-4.8346,-4.8408,-4.8405,-4.8817,-4.843,-4.8429,-4.8428,-4.8427,0,-4.7265,-4.732,-4.7536,-4.7548,-4.7584,-4.7679,-4.774,-4.7812,-4.784,-4.7825,-4.7865,-4.7802,-4.7919,-4.7781,-4.7942,-4.7829,-4.787,-4.7871,-4.788,-4.7891,-4.7738,-4.798,-4.8374,-4.8415,-4.7897,-4.7892,-4.7888,0,-4.6911,-4.712,-4.7068,-4.7274,-4.7365,-4.726,-4.7364,-4.7392,-4.738,-4.7454,-4.7439,-4.7525,-4.7413,-4.7435,-4.7519,-4.7509,-4.7655,-4.7487,-4.7597,-4.7601,-4.7596,-4.7956,-4.8027,-4.8291,-4.7831,-4.7837,-4.7841,0,-4.6633,-4.6653,-4.6694,-4.6718,-4.6745,-4.6821,-4.6941,-4.7012,-4.7065,-4.7105,-4.7205,-4.7322,-4.7243,-4.728,-4.7235,-4.7326,-4.7554,-4.7229,-4.7229,-4.7291,-4.7798,-4.7864,-4.7909,-4.7504,-4.751,-4.7516,-4.7796,0,-4.6236,-4.6335,-4.6442,-4.6499,-4.655,-4.6677,-4.6635,-4.6694,-4.6646,-4.6631,-4.6775,-4.6788,-4.686,-4.6899,-4.6853,-4.7073,-4.703,-4.6945,-4.6811,-4.7047,-4.7138,-4.7175,-4.6678,-4.6674,-4.667,-4.6667,0,0,-4.5907,-4.6049,-4.5988,-4.6103,-4.6143,-4.6033,-4.6172,-4.6197,-4.6253,-4.6283,-4.6207,-4.6377,-4.6391,-4.6571,-4.6641,-4.667,-4.6706,-4.6626,-4.6934,-4.6964,-4.6992,-4.709,-4.7129,-4.6661,-4.6659,-4.6658,-4.6657,0,-4.5754,-4.5771,-4.5909,-4.5933,-4.5967,-4.5943,-4.5977,-4.599,-4.5987,-4.6128,-4.6036,-4.6117,-4.6255,-4.6282,-4.6314,-4.6601,-4.6528,-4.6626,-4.6796,-4.69,-4.6934,-4.6965,-4.7069,-4.7107,-4.6648,-4.6649,-4.6649,0,-4.5475,-4.5485,-4.5547,-4.5632,-4.5653,-4.5749,-4.5597,-4.5705,-4.5775,-4.5649,-4.5791,-4.5793,-4.5826,-4.6001,-4.6078,-4.6012,-4.6369,-4.6248,-4.627,-4.6278,-4.6377,-4.6418,-4.6456,-4.5966,-4.5964,-4.5962,0,0,-4.5348,-4.544,-4.5433,-4.5596,-4.5616,-4.5584,-4.563,-4.5588,-4.562,-4.5633,-4.5634,-4.5668,-4.5747,-4.5801,-4.5873,-4.6071,-4.6074,-4.6166,-4.6198,-4.6225,-4.6248,-4.6353,-4.6394,-4.5954,-4.5954,-4.5953,0,0,-4.5288,-4.5287,-4.5233,-4.5417,-4.5451,-4.5455,-4.5556,-4.549,-4.5551,-4.5532,-4.5465,-4.5471,-4.5634,-4.5639,-4.5533,-4.5824,-4.5691,-4.5716,-4.5816,-4.5856,-4.5887,-4.5884,-4.538,0,0,0,0,0,-4.5111,-4.5286,-4.5237,-4.5262,-4.537,-4.5482,-4.5495,-4.5444,-4.5351,-4.5432,-4.5422,-4.534,-4.5568,-4.5472,-4.5498,-4.5618,-4.5847,-4.5866,-4.5884,-4.6058,-4.6101,-4.6136,0,0,0,0,0,0,-4.512,-4.5151,-4.5232,-4.5245,-4.5268,-4.5475,-4.5306,-4.5297,-4.5341,-4.5323,-4.5344,-4.5341,-4.5299,-4.5456,-4.5479,-4.5595,-4.5372,-4.5854,-4.587,-4.5885,-4.6073,-4.6107,-4.6137,0,0,0,0,0,-4.5127,-4.5152,-4.5338,-4.5242,-4.5262,-4.5236,-4.5299,-4.529,-4.5323,-4.5309,-4.5302,-4.528,-4.5304,-4.532,-4.5469,-4.5585,-4.5355,-4.5364,-4.5865,-4.5877,-4.5889,-4.609,0,0,0,0,0,0,-4.5132,-4.5144,-4.5341,-4.5345,-4.5172,-4.5223,-4.523,-4.5284,-4.5304,-4.53,-4.524,-4.5226,-4.5309,-4.5321,-4.5334,-4.5585,-4.5341,-4.5351,-4.5356,-4.5874,-4.5884,-4.5893,0,0,0,0,0,0,-4.513,-4.5149,-4.5343,-4.5258,-4.5252,-4.5212,-4.5218,-4.5337,-4.5306,-4.5235,-4.5223,-4.5234,-4.5289,-4.5322,-4.5332,-4.552,-4.5331,-4.534,-4.5346,-4.535,-4.5882,-4.589,0,0,0,0,0,0,-4.5137,-4.5153,-4.5257,-4.5252,-4.5246,-4.5291,-4.5316,-4.543,-4.5233,-4.5236,-4.5214,-4.5206,-4.5293,-4.5302,-4.5331,-4.5516,-4.5519,-4.5331,-4.5337,-4.5341,-4.5344,0,0,0,0,0,0,0,-4.5142,-4.5051,-4.5316,-4.5247,-4.5242,-4.5386,-4.5387,-4.5388,-4.5232,-4.5224,-4.5216,-4.5209,-4.5281,-4.529,-4.53,-4.5513,0,0,-4.533,-4.5335,0,0,0,0,0,0,0,0,-4.5043,-4.5049,-4.5316,-4.5317,-4.5318,-4.5386,-4.5387,-4.5388,-4.523,-4.5224,-4.5218,-4.5212,-4.5283,-4.5291,-4.5299,0,0,0,0,0,0,0,0,0,0,0,0,0,0,0,-4.5316,-4.5317,0,-4.5386,-4.5387,-4.5387,-4.5229,-4.5224,-4.5219,-4.5214,-4.5285,-4.5292,-4.5298,0,0,0,0,0,0,0,0,0,0,0,0,0,0,0,0,0,0,0,0,0,0,0,0,0,0,0,0,0,0,0,0,0,0,0,0,0,0,0,0,0,0,0,0,0,0,0,0,0,0,0,0,0,0,0,0,0,0,0,0,0,0,0,0,0,0,0,0,0]}],[{"header":{"parameterUnit":"kt","parameterCategory":2,"dx":1,"dy":1,"la1":30.253999710083008,"la2":30.299108505249023,"lo1":-89.0895004272461,"lo2":-89.04439544677734,"nx":28,"ny":28,"refTime":"2022-10-07T21:00:00:Z","depth":0,"parameterNumber":2,"parameterNumberName":"V-component_of_WINDS"},"data":[-10.8076,-10.8247,-10.8245,-10.8437,-10.8467,-10.8597,-10.8641,-10.8698,-10.8741,-10.8891,-10.8976,-10.8987,-10.9025,-10.9121,-10.921,-10.9211,-10.9249,-10.9312,-10.9303,-10.9028,-10.8989,-10.8952,-10.8913,-10.9321,-10.9321,-10.9588,-10.9591,-10.9593,-10.7874,-10.7907,-10.8008,-10.8105,-10.8191,-10.8129,-10.8198,-10.8273,-10.8389,-10.8443,-10.8526,-10.8656,-10.8757,-10.8773,-10.8868,-10.8943,-10.8917,-10.8968,-10.8962,-10.8969,-10.8675,-10.8633,-10.8988,-10.8988,-10.8988,-10.8988,-10.8988,-10.8987,-10.7505,-10.7608,-10.7665,-10.7775,-10.7822,-10.7885,-10.7981,-10.7994,-10.809,-10.8193,-10.8167,-10.8296,-10.8346,-10.8456,-10.8491,-10.8588,-10.8529,-10.8583,-10.8596,-10.861,-10.8627,-10.8241,-10.8604,-10.8603,-10.8602,-10.8601,-10.86,0,-10.7233,-10.7225,-10.7322,-10.7419,-10.7498,-10.7572,-10.7638,-10.7696,-10.7671,-10.7751,-10.7865,-10.793,-10.8055,-10.8159,-10.8246,-10.827,-10.8209,-10.8202,-10.8239,-10.8254,-10.8256,-10.8256,-10.7776,-10.8191,-10.8187,-10.8185,-10.8183,-10.8182,-10.686,-10.6981,-10.7039,-10.7107,-10.7143,-10.7253,-10.7317,-10.7286,-10.7355,-10.7428,-10.7518,-10.7623,-10.7706,-10.7886,-10.7893,-10.7985,-10.7956,-10.8115,-10.7969,-10.7979,-10.7957,-10.7951,-10.7962,-10.8144,-10.8149,-10.8153,-10.8156,0,-10.665,-10.6645,-10.683,-10.6874,-10.6888,-10.7015,-10.705,-10.7149,-10.7149,-10.7285,-10.7314,-10.7313,-10.7424,-10.7406,-10.7528,-10.7514,-10.7716,-10.7685,-10.7698,-10.7691,-10.7831,-10.7818,-10.829,-10.8349,-10.7927,-10.7931,-10.7935,0,-10.6329,-10.6488,-10.647,-10.6578,-10.6752,-10.6717,-10.6889,-10.6906,-10.695,-10.7057,-10.6987,-10.7087,-10.7049,-10.7146,-10.7126,-10.7288,-10.731,-10.7309,-10.7302,-10.7316,-10.7316,-10.7349,-10.7329,-10.7282,-10.728,-10.7277,-10.7276,0,-10.6,-10.6176,-10.6352,-10.639,-10.6452,-10.6534,-10.6562,-10.6611,-10.6674,-10.6751,-10.679,-10.6881,-10.6931,-10.7001,-10.6976,-10.6878,-10.7173,-10.7032,-10.7172,-10.7173,-10.7237,-10.7234,-10.7657,-10.7273,-10.7272,-10.7271,-10.727,0,-10.5739,-10.5823,-10.6078,-10.6127,-10.6174,-10.6289,-10.6378,-10.6472,-10.6528,-10.6525,-10.6584,-10.6535,-10.6676,-10.6537,-10.6729,-10.6608,-10.666,-10.6672,-10.6682,-10.6692,-10.6538,-10.6779,-10.7184,-10.7226,-10.6703,-10.6698,-10.6694,0,-10.5364,-10.562,-10.5593,-10.5834,-10.595,-10.5865,-10.599,-10.6043,-10.6048,-10.6144,-10.6147,-10.6256,-10.615,-10.6181,-10.6278,-10.6286,-10.6443,-10.6264,-10.6397,-10.6402,-10.6385,-10.6759,-10.6824,-10.7098,-10.6633,-10.664,-10.6644,0,-10.5072,-10.5149,-10.5194,-10.5236,-10.5303,-10.5399,-10.5543,-10.5645,-10.571,-10.5777,-10.5895,-10.6047,-10.5972,-10.6025,-10.5993,-10.6096,-10.6335,-10.6001,-10.6002,-10.6061,-10.6601,-10.6662,-10.6709,-10.6291,-10.6298,-10.6304,-10.6596,0,-10.4678,-10.4805,-10.4928,-10.5025,-10.5096,-10.5247,-10.5232,-10.5308,-10.5272,-10.5274,-10.5447,-10.5484,-10.5584,-10.5632,-10.5597,-10.5838,-10.5794,-10.5713,-10.5576,-10.5822,-10.5917,-10.5957,-10.5435,-10.5431,-10.5428,-10.5425,0,0,-10.4319,-10.4502,-10.4467,-10.4608,-10.4666,-10.4575,-10.4737,-10.4782,-10.4876,-10.4916,-10.4841,-10.5061,-10.5094,-10.5305,-10.538,-10.5421,-10.5462,-10.5377,-10.5705,-10.5737,-10.5766,-10.5868,-10.591,-10.5419,-10.5417,-10.5416,-10.5415,0,-10.4172,-10.4215,-10.4378,-10.4424,-10.4491,-10.4487,-10.4526,-10.4575,-10.4584,-10.4755,-10.4674,-10.4775,-10.4953,-10.4998,-10.5044,-10.5351,-10.5283,-10.5383,-10.5554,-10.5671,-10.5707,-10.5739,-10.5847,-10.5887,-10.5407,-10.5407,-10.5407,0,-10.3882,-10.3921,-10.3998,-10.4128,-10.4171,-10.4291,-10.4145,-10.4279,-10.4367,-10.4256,-10.4427,-10.4445,-10.4504,-10.4707,-10.4797,-10.4729,-10.5122,-10.4995,-10.5016,-10.5025,-10.5137,-10.518,-10.5219,-10.471,-10.4708,-10.4706,0,0,-10.3756,-10.3875,-10.3906,-10.4096,-10.4128,-10.4124,-10.4186,-10.4156,-10.4214,-10.4237,-10.4259,-10.4316,-10.4417,-10.4485,-10.458,-10.4805,-10.4813,-10.491,-10.4943,-10.497,-10.4994,-10.5112,-10.5155,-10.4697,-10.4697,-10.4696,0,0,-10.3695,-10.374,-10.3694,-10.3913,-10.3973,-10.4013,-10.4128,-10.4072,-10.4156,-10.4136,-10.409,-10.4103,-10.4292,-10.4312,-10.4196,-10.453,-10.4395,-10.4422,-10.451,-10.4551,-10.4584,-10.4574,-10.4049,0,0,0,0,0,-10.3538,-10.3734,-10.3693,-10.3727,-10.389,-10.4036,-10.4056,-10.4025,-10.393,-10.4022,-10.4031,-10.3954,-10.424,-10.4136,-10.4169,-10.4298,-10.4583,-10.4603,-10.4622,-10.4788,-10.4832,-10.4868,0,0,0,0,0,0,-10.3551,-10.3594,-10.3687,-10.3737,-10.3773,-10.4029,-10.3862,-10.3858,-10.3919,-10.3903,-10.3955,-10.3956,-10.3929,-10.4117,-10.4147,-10.427,-10.4038,-10.4591,-10.4608,-10.4624,-10.4803,-10.4839,-10.4869,0,0,0,0,0,-10.3562,-10.3596,-10.3866,-10.3733,-10.3765,-10.377,-10.3854,-10.385,-10.3896,-10.3911,-10.3909,-10.3867,-10.3934,-10.3956,-10.4134,-10.4258,-10.4017,-10.4029,-10.4602,-10.4616,-10.4628,-10.4821,0,0,0,0,0,0,-10.3569,-10.3591,-10.3872,-10.388,-10.3657,-10.3754,-10.3769,-10.3843,-10.3899,-10.39,-10.3819,-10.3805,-10.3939,-10.3956,-10.3974,-10.4255,-10.4,-10.4012,-10.4019,-10.4612,-10.4623,-10.4632,0,0,0,0,0,0,-10.3573,-10.3599,-10.3876,-10.3782,-10.3779,-10.3741,-10.3754,-10.3899,-10.3901,-10.3804,-10.3794,-10.3812,-10.391,-10.3957,-10.397,-10.4199,-10.3987,-10.3998,-10.4006,-10.401,-10.4621,-10.4629,0,0,0,0,0,0,-10.3583,-10.3606,-10.3779,-10.3778,-10.3774,-10.3864,-10.3868,-10.4036,-10.3824,-10.3802,-10.3804,-10.3795,-10.3913,-10.3926,-10.3968,-10.4192,-10.4197,-10.3987,-10.3995,-10.4,-10.4004,0,0,0,0,0,0,0,-10.3592,-10.3449,-10.3824,-10.3774,-10.3771,-10.3956,-10.3958,-10.396,-10.3822,-10.3814,-10.3806,-10.3799,-10.3923,-10.3935,-10.3948,-10.4186,0,0,-10.3986,-10.3991,0,0,0,0,0,0,0,0,-10.3438,-10.3446,-10.3824,-10.3826,-10.3827,-10.3956,-10.3958,-10.396,-10.3821,-10.3814,-10.3808,-10.3802,-10.3927,-10.3936,-10.3946,0,0,0,0,0,0,0,0,0,0,0,0,0,0,0,-10.3824,-10.3826,0,-10.3957,-10.3958,-10.396,-10.382,-10.3815,-10.3809,-10.3804,-10.3929,-10.3937,-10.3946,0,0,0,0,0,0,0,0,0,0,0,0,0,0,0,0,0,0,0,0,0,0,0,0,0,0,0,0,0,0,0,0,0,0,0,0,0,0,0,0,0,0,0,0,0,0,0,0,0,0,0,0,0,0,0,0,0,0,0,0,0,0,0,0,0,0,0,0,0]}]]]